Back to catalog

STARLINK-31151

AliveCommunicationsVLEO
NORAD 58742·PAYLOAD·🇺🇸 United States

Launched Jan 7, 2024 from Cape Canaveral Space Force Station

Loading…

Next Passes (next 24 hours)

TLE

FreshSource: CelesTrak SupGP

Epoch: Sep 14, 2026, 20:46 UTC

1 58742C 24005Q   26257.86576389  .00032419  00000+0  11743-2 0  2574
2 58742  43.0019 231.2341 0001326 257.5004 244.3839 15.27559312    10

Track STARLINK-31151 in real time with AllMySat

Download on the App Store